TimeCDT,TemperatureF,Dew PointF,Humidity,Sea Level PressureIn,VisibilityMPH,Wind Direction,Wind SpeedMPH,Gust SpeedMPH,PrecipitationIn,Events,Conditions,WindDirDegrees,DateUTC
12:15 AM,62.6,57.4,83,30.05,10.0,ENE,5.8,-,N/A,,Clear,70,2013-06-16 05:15:00
12:35 AM,61.5,57.2,86,30.03,10.0,ENE,4.6,-,N/A,,Clear,70,2013-06-16 05:35:00
12:55 AM,61.0,57.2,87,30.04,10.0,ENE,4.6,-,N/A,,Clear,70,2013-06-16 05:55:00
1:15 AM,61.2,56.3,84,30.04,10.0,ESE,4.6,-,N/A,,Clear,110,2013-06-16 06:15:00
1:35 AM,61.7,56.3,82,30.05,10.0,SE,6.9,-,N/A,,Clear,140,2013-06-16 06:35:00
1:55 AM,61.7,56.1,82,30.05,10.0,SE,5.8,-,N/A,,Clear,140,2013-06-16 06:55:00
2:15 AM,61.3,55.9,82,30.04,10.0,Calm,Calm,-,N/A,,Clear,0,2013-06-16 07:15:00
2:35 AM,60.4,55.6,84,30.05,10.0,Calm,Calm,-,N/A,,Clear,0,2013-06-16 07:35:00
2:55 AM,59.2,55.4,87,30.07,10.0,Calm,Calm,-,N/A,,Clear,0,2013-06-16 07:55:00
3:15 AM,59.2,55.2,87,30.07,10.0,Calm,Calm,-,N/A,,Clear,0,2013-06-16 08:15:00
3:35 AM,59.4,55.8,88,30.06,10.0,Calm,Calm,-,N/A,,Clear,0,2013-06-16 08:35:00
3:55 AM,58.5,54.9,88,30.07,10.0,Calm,Calm,-,N/A,,Clear,0,2013-06-16 08:55:00
4:15 AM,58.5,55.2,89,30.07,10.0,Calm,Calm,-,N/A,,Clear,0,2013-06-16 09:15:00
4:35 AM,59.7,55.8,87,30.07,10.0,Calm,Calm,-,N/A,,Clear,0,2013-06-16 09:35:00
4:55 AM,57.2,54.0,89,30.06,10.0,Calm,Calm,-,N/A,,Clear,0,2013-06-16 09:55:00
5:15 AM,57.0,54.5,91,30.07,10.0,SE,3.5,-,N/A,,Clear,140,2013-06-16 10:15:00
5:35 AM,57.7,55.0,91,30.05,10.0,SSE,5.8,-,N/A,,Clear,150,2013-06-16 10:35:00
5:55 AM,58.5,55.4,90,30.05,10.0,SE,5.8,-,N/A,,Clear,140,2013-06-16 10:55:00
6:15 AM,57.2,54.5,91,30.05,7.0,SE,3.5,-,N/A,,Clear,140,2013-06-16 11:15:00
6:35 AM,56.8,54.5,92,30.06,5.0,Calm,Calm,-,N/A,,Clear,0,2013-06-16 11:35:00
6:55 AM,59.0,56.3,91,30.08,10.0,NW,4.6,-,N/A,,Clear,320,2013-06-16 11:55:00
7:15 AM,59.9,57.2,91,30.08,7.0,Calm,Calm,-,N/A,,Scattered Clouds,0,2013-06-16 12:15:00
7:35 AM,61.7,57.4,86,30.07,10.0,Calm,Calm,-,N/A,,Clear,0,2013-06-16 12:35:00
7:55 AM,60.8,57.6,89,30.08,10.0,Calm,Calm,-,N/A,,Scattered Clouds,0,2013-06-16 12:55:00
8:15 AM,62.8,58.5,86,30.09,10.0,North,12.7,-,N/A,,Mostly Cloudy,350,2013-06-16 13:15:00
8:35 AM,62.6,58.3,86,30.07,10.0,NE,5.8,-,N/A,,Overcast,50,2013-06-16 13:35:00
8:55 AM,61.9,58.3,88,30.08,5.0,Calm,Calm,-,N/A,Thunderstorm,Mostly Cloudy,0,2013-06-16 13:55:00
9:15 AM,63.0,58.3,85,30.04,10.0,SSE,8.1,-,N/A,Rain-Thunderstorm,Light Thunderstorms and Rain,160,2013-06-16 14:15:00
9:35 AM,63.5,59.2,86,30.08,10.0,SW,11.5,-,0.03,Rain-Thunderstorm,Thunderstorms and Rain,220,2013-06-16 14:35:00
9:55 AM,64.4,60.4,87,30.05,5.0,South,11.5,-,0.08,Rain,Light Rain,180,2013-06-16 14:55:00
10:15 AM,64.2,60.4,87,30.07,10.0,South,12.7,18.4,N/A,,Scattered Clouds,190,2013-06-16 15:15:00
10:35 AM,64.2,60.8,89,30.05,7.0,SSE,13.8,-,N/A,,Clear,160,2013-06-16 15:35:00
10:55 AM,66.4,59.0,77,30.05,10.0,South,12.7,20.7,N/A,,Scattered Clouds,170,2013-06-16 15:55:00
11:15 AM,68.5,57.0,67,30.05,10.0,South,16.1,-,N/A,,Scattered Clouds,170,2013-06-16 16:15:00
11:35 AM,70.2,54.1,57,30.05,10.0,SSE,15.0,18.4,N/A,,Clear,150,2013-06-16 16:35:00
11:55 AM,72.5,50.9,47,30.05,10.0,SSE,11.5,-,N/A,,Clear,160,2013-06-16 16:55:00
12:15 PM,74.3,51.1,44,30.05,10.0,SE,5.8,-,N/A,,Clear,130,2013-06-16 17:15:00
12:35 PM,73.8,54.5,51,30.06,10.0,NE,10.4,-,N/A,,Scattered Clouds,50,2013-06-16 17:35:00
12:55 PM,72.1,57.4,60,30.07,10.0,ENE,6.9,-,N/A,,Scattered Clouds,70,2013-06-16 17:55:00
1:15 PM,73.2,57.2,57,30.05,10.0,East,9.2,-,N/A,,Clear,90,2013-06-16 18:15:00
1:35 PM,74.1,60.8,63,30.04,10.0,ENE,8.1,-,N/A,,Clear,70,2013-06-16 18:35:00
1:55 PM,75.4,61.7,62,30.04,10.0,East,9.2,-,N/A,,Clear,90,2013-06-16 18:55:00
2:15 PM,76.1,62.2,62,30.05,10.0,ENE,11.5,17.3,N/A,,Clear,60,2013-06-16 19:15:00
2:35 PM,75.2,62.1,64,30.05,10.0,ENE,16.1,-,N/A,,Clear,70,2013-06-16 19:35:00
2:55 PM,74.7,59.7,60,30.06,10.0,NE,15.0,20.7,N/A,,Mostly Cloudy,50,2013-06-16 19:55:00
3:15 PM,73.8,58.5,59,30.06,10.0,NE,18.4,26.5,N/A,Thunderstorm,Overcast,50,2013-06-16 20:15:00
3:35 PM,71.8,53.6,53,30.05,10.0,ENE,21.9,31.1,N/A,,Overcast,60,2013-06-16 20:35:00
3:55 PM,71.2,51.4,50,30.03,10.0,ENE,21.9,32.2,N/A,,Overcast,60,2013-06-16 20:55:00
4:15 PM,71.1,49.3,46,30.03,10.0,ENE,24.2,32.2,N/A,,Mostly Cloudy,70,2013-06-16 21:15:00
4:35 PM,69.3,49.6,50,30.03,10.0,East,18.4,23.0,N/A,,Scattered Clouds,80,2013-06-16 21:35:00
4:55 PM,68.2,48.7,50,30.02,10.0,ENE,17.3,27.6,N/A,,Clear,70,2013-06-16 21:55:00
5:15 PM,68.4,48.4,49,30.07,10.0,SE,12.7,39.1,N/A,Thunderstorm,Mostly Cloudy,130,2013-06-16 22:15:00
5:35 PM,66.0,49.1,54,30.07,10.0,ENE,21.9,33.4,N/A,Rain-Thunderstorm,Light Thunderstorms and Rain,70,2013-06-16 22:35:00
5:55 PM,61.2,52.0,72,30.07,7.0,East,17.3,28.8,0.01,Rain-Thunderstorm,Light Thunderstorms and Rain,80,2013-06-16 22:55:00
6:15 PM,61.5,50.9,68,30.04,7.0,SE,17.3,26.5,0.05,Rain-Thunderstorm,Light Thunderstorms and Rain,140,2013-06-16 23:15:00
6:35 PM,61.2,51.8,71,30.02,10.0,ESE,18.4,29.9,0.06,Rain,Light Rain,120,2013-06-16 23:35:00
6:55 PM,61.2,51.8,71,30.04,10.0,SE,21.9,-,0.06,Rain,Light Rain,140,2013-06-16 23:55:00
7:15 PM,60.4,52.7,76,29.99,10.0,ESE,6.9,19.6,N/A,,Light Drizzle,120,2013-06-17 00:15:00
7:35 PM,62.8,52.9,70,30.02,10.0,SSE,18.4,27.6,N/A,,Clear,150,2013-06-17 00:35:00
7:55 PM,63.1,52.7,69,30.03,10.0,SE,12.7,23.0,N/A,,Clear,140,2013-06-17 00:55:00
8:15 PM,64.6,53.6,68,30.03,10.0,SSE,16.1,21.9,N/A,,Clear,150,2013-06-17 01:15:00
8:35 PM,64.4,53.8,68,30.03,10.0,SE,11.5,-,N/A,,Clear,140,2013-06-17 01:35:00
8:55 PM,63.1,53.8,71,30.03,10.0,SE,10.4,-,N/A,,Clear,130,2013-06-17 01:55:00
9:15 PM,61.2,54.1,78,30.03,10.0,ESE,5.8,-,N/A,,Clear,120,2013-06-17 02:15:00
9:35 PM,59.2,54.0,83,30.04,10.0,Calm,Calm,-,N/A,,Clear,0,2013-06-17 02:35:00
9:55 PM,58.1,53.2,84,30.05,10.0,Calm,Calm,-,N/A,,Clear,0,2013-06-17 02:55:00
10:15 PM,57.4,53.1,85,30.06,10.0,Calm,Calm,-,N/A,,Clear,0,2013-06-17 03:15:00
10:35 PM,58.3,52.9,82,30.08,10.0,Calm,Calm,-,N/A,,Clear,0,2013-06-17 03:35:00
10:55 PM,56.5,52.7,87,30.08,10.0,Calm,Calm,-,N/A,,Clear,0,2013-06-17 03:55:00
11:15 PM,55.9,52.9,89,30.07,10.0,West,4.6,-,N/A,,Clear,270,2013-06-17 04:15:00
11:35 PM,55.8,52.7,89,30.08,10.0,WNW,3.5,-,N/A,,Clear,300,2013-06-17 04:35:00
11:55 PM,54.7,52.0,91,30.09,10.0,West,4.6,-,N/A,,Clear,260,2013-06-17 04:55:00